Orbital Elements at Epoch 2459200.5 (2020-Dec-17.0) TDB
Reference: JPL 21 (heliocentric ecliptic J2000)
Element | Value | Uncertainty (1-sigma) | Units |
e | .1341707783099908 | 6.0477e-08 | |
a | 2.282748524369908 | 9.3193e-09 | au |
q | 1.976470378169214 | 1.3556e-07 | au |
i | 9.952507338452826 | 5.4624e-06 | deg |
node | 347.269900572617 | 2.6242e-05 | deg |
peri | 43.21553170196064 | 3.3787e-05 | deg |
M | 136.7907079576237 | 1.8516e-05 | deg |
tp | 2458721.826230644213 (2019-Aug-26.32623064) | 6.425e-05 | TDB |
period | 1259.753381943656 3.45 | 7.7144e-06 2.112e-08 | d yr |
n | .2857702191238105 | 1.75e-09 | deg/d |
Q | 2.589026670570601 | 1.057e-08 | au |
|
| | Orbit Determination Parameters
Additional Information
|